Location: Newark
(30.0333°N, 31.2167°E)
Time: 18:23:22
(UTC+00:00)

Tiros 1 despin weight - Pass Details

Date: 21 January 2020
Orbit: 594 x 642 km, 48.2° (Epoch: 27 February)

Event Time Altitude Azimuth Distance (km) Brightness Sun altitude
Rises 10:14:43 0° 244° (WSW) 2,850 ? 40.0°
Reaches altitude 10° 10:17:05 10° 251° (WSW) 1,957 ? 39.9°
Maximum altitude 10:21:23 43° 324° (NW) 861 ? 39.9°
Drops below altitude 10° 10:25:45 10° 36° (NE) 1,993 ? 39.8°
Sets 10:28:11 0° 43° (NE) 2,910 ? 39.7°
